Cork, Ireland

11:26 PM GMT on November 24, 2017 (GMT +0000)
Cork

Weather History for EICK - January, 2013

Change the Weather History Date:

Saturday, January 12, 2013

  Actual Average Record
Temperature  
Mean Temperature 41 °F -  
Max Temperature 45 °F 46 °F 53 °F (2007)
Min Temperature 37 °F 37 °F 32 °F (2000)
Degree Days  
Heating Degree Days 24    
Moisture  
Dew Point 41 °F    
Average Humidity 94    
Maximum Humidity 100    
Minimum Humidity 81    
Precipitation  
Precipitation 0.08 in 0.18 in - ()
Sea Level Pressure  
Sea Level Pressure 29.76 in    
Wind  
Wind Speed 9 mph ()    
Max Wind Speed 18 mph    
Max Gust Speed -    
Visibility 6.8 miles    
Events Rain    
Averages and records for this station are not official NWS values.
T = Trace of Precipitation, MM = Missing Value Source: Averaged Metar Reports

Daily Weather History Graph

Daily Weather History Graph

Search for Another Location

Airport or City:

Trip Planner

Search our weather history database for the weather conditions in past years. The results will help you decide how hot, cold, wet, or windy it might be!

Date:

Astronomy

Jan. 12, 2013 Rise Set
Actual Time 8:36 AM GMT 4:48 PM GMT
Civil Twilight 7:57 AM GMT 5:27 PM GMT
Nautical Twilight 7:14 AM GMT 6:10 PM GMT
Astronomical Twilight 6:34 AM GMT 6:50 PM GMT
Moon 8:34 AM GMT (1/12) 6:15 PM GMT (1/12)
Length of Visible Light 9h 30m
Length of Day
8h 11m
New Moon, 1% of the Moon is Illuminated
Jan 12
New Moon
Jan 18
First Quarter
Jan 27
Full
Feb 3
Last Quarter
Feb 10
New

Hourly Weather History & Observations

Time (GMT) Temp. Windchill Dew Point Humidity Pressure Visibility Wind Dir Wind Speed Gust Speed Precip Events Conditions
12:00 AM 43 °F - 43 °F 100% 29.69 in 12 mi SSE 8.9 mph - - Rain Light Rain
12:00 AM 42.8 °F 38.0 °F 42.8 °F 100% 29.65 in 6.2 mi SSE 8.1 mph - N/A   Mostly Cloudy
12:30 AM 42.8 °F 38.6 °F 42.8 °F 100% 29.65 in 6.2 mi ESE 6.9 mph - N/A Rain Light Rain Showers
1:00 AM 42.8 °F 38.6 °F 42.8 °F 100% 29.65 in 6.2 mi ESE 6.9 mph - N/A Rain Light Rain
1:30 AM 42.8 °F 39.3 °F 42.8 °F 100% 29.65 in 6.2 mi East 5.8 mph - N/A Rain Light Rain
2:00 AM 42.8 °F 38.0 °F 42.8 °F 100% 29.65 in 6.2 mi ESE 8.1 mph - N/A Rain Light Rain
2:30 AM 42.8 °F 38.6 °F 42.8 °F 100% 29.65 in 6.2 mi ESE 6.9 mph - N/A   Mostly Cloudy
3:00 AM 42.8 °F 39.3 °F 42.8 °F 100% 29.62 in 6.2 mi ESE 5.8 mph - N/A   Mostly Cloudy
3:30 AM 42.8 °F 39.3 °F 42.8 °F 100% 29.62 in 6.2 mi East 5.8 mph - N/A   Mostly Cloudy
4:00 AM 42.8 °F 39.3 °F 42.8 °F 100% 29.62 in 6.2 mi East 5.8 mph - N/A   Mostly Cloudy
4:30 AM 42.8 °F 38.6 °F 42.8 °F 100% 29.62 in 3.7 mi East 6.9 mph - N/A Rain Light Rain Showers
5:00 AM 42.8 °F 38.6 °F 42.8 °F 100% 29.62 in 6.2 mi East 6.9 mph - N/A Rain Light Rain Showers
5:30 AM 42.8 °F 37.5 °F 42.8 °F 100% 29.62 in 6.2 mi East 9.2 mph - N/A Rain Light Rain Showers
6:00 AM 42 °F - 42 °F 100% 29.66 in 16 mi ENE 6.7 mph - - Rain Light Rain Showers
6:00 AM 42.8 °F 39.3 °F 42.8 °F 100% 29.62 in 6.2 mi ENE 5.8 mph - N/A   Mostly Cloudy
6:30 AM 42.8 °F 38.0 °F 41.0 °F 93% 29.62 in 6.2 mi ENE 8.1 mph - N/A Rain Light Rain Showers
7:00 AM 41.0 °F 36.4 °F 41.0 °F 100% 29.65 in 6.2 mi NE 6.9 mph - N/A Rain Light Rain Showers
7:30 AM 41.0 °F - 41.0 °F 100% 29.65 in 6.2 mi ENE 2.3 mph - N/A Rain Light Rain Showers
8:00 AM 42.8 °F 39.3 °F 42.8 °F 100% 29.68 in 6.2 mi ENE 5.8 mph - N/A   Overcast
8:30 AM 42.8 °F 37.0 °F 42.8 °F 100% 29.68 in 6.2 mi East 10.4 mph - N/A   Mostly Cloudy
9:00 AM 42.8 °F 36.6 °F 42.8 °F 100% 29.68 in 6.2 mi ENE 11.5 mph - N/A   Scattered Clouds
9:30 AM 42.8 °F 37.5 °F 42.8 °F 100% 29.68 in 6.2 mi NE 9.2 mph - N/A   Mostly Cloudy
10:00 AM 42.8 °F 36.2 °F 42.8 °F 100% 29.71 in 6.2 mi NE 12.7 mph - N/A   Mostly Cloudy
10:30 AM 42.8 °F 37.5 °F 42.8 °F 100% 29.71 in 6.2 mi NNE 9.2 mph - N/A   Mostly Cloudy
11:00 AM 44.6 °F 38.1 °F 42.8 °F 93% 29.71 in 6.2 mi NE 13.8 mph - N/A   Scattered Clouds
11:30 AM 44.6 °F 37.8 °F 42.8 °F 93% 29.74 in 6.2 mi NE 15.0 mph - N/A   Mostly Cloudy
12:00 PM 44 °F - 42 °F 88% 29.76 in 16 mi NE 15.7 mph - -   Partly Cloudy
12:00 PM 42.8 °F 35.4 °F 41.0 °F 93% 29.74 in 6.2 mi NE 15.0 mph - N/A   Mostly Cloudy
12:30 PM 44.6 °F 37.2 °F 41.0 °F 87% 29.74 in 6.2 mi NE 17.3 mph - N/A   Mostly Cloudy
1:00 PM 44.6 °F 37.4 °F 41.0 °F 87% 29.74 in 6.2 mi NE 16.1 mph - N/A   Mostly Cloudy
1:30 PM 44.6 °F 36.9 °F 41.0 °F 87% 29.74 in 6.2 mi NE 18.4 mph - N/A   Mostly Cloudy
2:00 PM 44.6 °F 37.8 °F 41.0 °F 87% 29.74 in 6.2 mi NE 15.0 mph - N/A   Scattered Clouds
2:30 PM 44.6 °F 37.4 °F 41.0 °F 87% 29.77 in 6.2 mi NNE 16.1 mph - N/A   Scattered Clouds
3:00 PM 44.6 °F 37.8 °F 39.2 °F 81% 29.77 in 6.2 mi NNE 15.0 mph - N/A   Mostly Cloudy
3:30 PM 44.6 °F 37.4 °F 41.0 °F 87% 29.80 in 6.2 mi NNE 16.1 mph - N/A   Mostly Cloudy
4:00 PM 44.6 °F 36.9 °F 41.0 °F 87% 29.80 in 6.2 mi NNE 18.4 mph - N/A   Mostly Cloudy
4:30 PM 42.8 °F 35.1 °F 39.2 °F 87% 29.83 in 6.2 mi NNE 16.1 mph - N/A   Mostly Cloudy
5:00 PM 42.8 °F 35.1 °F 39.2 °F 87% 29.83 in 6.2 mi NNE 16.1 mph - N/A   Mostly Cloudy
5:30 PM 42.8 °F 34.8 °F 39.2 °F 87% 29.86 in 6.2 mi NNE 17.3 mph - N/A   Mostly Cloudy
6:00 PM 42 °F - 38 °F 83% 29.90 in 16 mi NNE 17.9 mph - -   Mostly Cloudy
6:00 PM 42.8 °F 34.8 °F 39.2 °F 87% 29.89 in 6.2 mi NNE 17.3 mph - N/A   Mostly Cloudy
6:30 PM 41.0 °F 32.5 °F 39.2 °F 93% 29.89 in 6.2 mi NNE 17.3 mph - N/A   Mostly Cloudy
7:00 PM 41.0 °F 33.1 °F 37.4 °F 87% 29.89 in 6.2 mi NNE 15.0 mph - N/A   Mostly Cloudy
7:30 PM 41.0 °F 32.8 °F 37.4 °F 87% 29.92 in 6.2 mi NNE 16.1 mph - N/A   Mostly Cloudy
8:00 PM 41.0 °F 33.1 °F 37.4 °F 87% 29.92 in 6.2 mi North 15.0 mph - N/A   Mostly Cloudy
8:30 PM 41.0 °F 33.1 °F 37.4 °F 87% 29.95 in 6.2 mi NNE 15.0 mph - N/A   Mostly Cloudy
9:00 PM 41.0 °F 32.8 °F 37.4 °F 87% 29.95 in 6.2 mi NNE 16.1 mph - N/A   Mostly Cloudy
9:30 PM 39.2 °F 31.6 °F 35.6 °F 87% 29.98 in 6.2 mi NNE 12.7 mph - N/A   Scattered Clouds
10:00 PM 39.2 °F 33.6 °F 35.6 °F 87% 29.98 in 6.2 mi NNE 8.1 mph - N/A   Partly Cloudy
10:30 PM 37.4 °F 29.8 °F 35.6 °F 93% 30.01 in 6.2 mi North 11.5 mph - N/A   Partly Cloudy
11:00 PM 37.4 °F 28.9 °F 35.6 °F 93% 30.01 in 6.2 mi North 13.8 mph - N/A   Partly Cloudy
11:30 PM 37.4 °F 29.3 °F 35.6 °F 93% 30.01 in 6.2 mi North 12.7 mph - N/A   Partly Cloudy